Tracking 18852 objects as of 23-Nov-2017
HD Live streaming from Space Station
objects crossing your sky now

FENGYUN 1C DEB

Track FENGYUN 1C DEB now!
10-day predictions


NORAD ID: 37046
Int'l Code: 1999-025EEE
Perigee: 801.0 km
Apogee: 881.5 km
Inclination: 98.8 °
Period: 101.6 minutes
Semi major axis: 7212 km
RCS: 0.0074 m2 (small)
Launch date: May 10, 1999
Source: People's Republic of China (PRC)
Launch site: Taiyaun Space Center, China (TSC)

Note: This is SATELLITE DEBRIS
aabbcc
Your satellite tracking list
Your tracking list is empty




NASA's NSSDC Master Catalog

Two Line Element Set (TLE):
1 37046U 99025EEE 17324.31265637 +.00000411 +00000-0 +22134-3 0  9996
2 37046 098.8242 357.3870 0055788 151.3320 209.0940 14.17418956224105
Source of the keplerian elements: AFSPC